Time,TemperatureF,DewpointF,PressureIn,WindDirection,WindDirectionDegrees,WindSpeedMPH,WindSpeedGustMPH,Humidity,HourlyPrecipIn,Conditions,Clouds,dailyrainin,SoftwareType,DateUTC
2013-06-26 00:00:00,68.2,65.8,30.00,WNW,299,0.0,1.0,92,0.00,,,0.00,Wunderground v.1.15,2013-06-26 04:00:00,
2013-06-26 00:05:00,68.1,66.0,30.00,WNW,299,0.0,1.0,93,0.00,,,0.00,Wunderground v.1.15,2013-06-26 04:05:00,
2013-06-26 00:10:00,68.0,65.9,30.00,WNW,299,0.0,1.0,93,0.00,,,0.00,Wunderground v.1.15,2013-06-26 04:10:00,
2013-06-26 00:15:00,67.9,65.8,30.00,WNW,299,0.0,1.0,93,0.00,,,0.00,Wunderground v.1.15,2013-06-26 04:15:00,
2013-06-26 00:20:00,67.7,65.6,29.99,WNW,299,0.0,1.0,93,0.00,,,0.00,Wunderground v.1.15,2013-06-26 04:20:00,
2013-06-26 00:25:00,67.7,65.9,29.99,WNW,299,0.0,1.0,94,0.00,,,0.00,Wunderground v.1.15,2013-06-26 04:25:00,
2013-06-26 00:30:00,67.6,65.8,29.99,WNW,299,0.0,1.0,94,0.00,,,0.00,Wunderground v.1.15,2013-06-26 04:30:00,
2013-06-26 00:35:00,67.5,65.7,29.98,WNW,299,0.0,1.0,94,0.00,,,0.00,Wunderground v.1.15,2013-06-26 04:35:00,
2013-06-26 00:45:00,67.5,66.0,29.98,WNW,299,0.0,1.0,95,0.00,,,0.00,Wunderground v.1.15,2013-06-26 04:45:00,
2013-06-26 00:50:00,67.5,66.0,29.98,WNW,299,0.0,1.0,95,0.00,,,0.00,Wunderground v.1.15,2013-06-26 04:50:00,
2013-06-26 00:55:00,67.5,66.0,29.98,WNW,299,0.0,1.0,95,0.00,,,0.00,Wunderground v.1.15,2013-06-26 04:55:00,
2013-06-26 01:00:00,67.6,66.1,29.98,WNW,299,0.0,1.0,95,0.00,,,0.00,Wunderground v.1.15,2013-06-26 05:00:00,
2013-06-26 01:05:00,67.6,66.1,29.98,WNW,299,0.0,1.0,95,0.00,,,0.00,Wunderground v.1.15,2013-06-26 05:05:00,
2013-06-26 01:15:00,67.6,66.1,29.97,WNW,299,0.0,0.0,95,0.00,,,0.00,Wunderground v.1.15,2013-06-26 05:15:00,
2013-06-26 01:25:00,67.6,66.1,29.97,WNW,299,0.0,0.0,95,0.00,,,0.00,Wunderground v.1.15,2013-06-26 05:25:00,
2013-06-26 01:30:00,67.5,66.0,29.97,WNW,299,0.0,0.0,95,0.00,,,0.00,Wunderground v.1.15,2013-06-26 05:30:00,
2013-06-26 01:40:00,67.4,65.9,29.97,WNW,299,0.0,0.0,95,0.00,,,0.00,Wunderground v.1.15,2013-06-26 05:40:00,
2013-06-26 01:50:00,67.1,65.6,29.97,WNW,299,0.0,0.0,95,0.00,,,0.00,Wunderground v.1.15,2013-06-26 05:50:00,
2013-06-26 01:55:00,67.0,65.5,29.96,WNW,299,0.0,0.0,95,0.00,,,0.00,Wunderground v.1.15,2013-06-26 05:55:00,
2013-06-26 02:05:00,66.8,65.3,29.96,WNW,299,0.0,0.0,95,0.00,,,0.00,Wunderground v.1.15,2013-06-26 06:05:00,
2013-06-26 02:15:00,66.6,65.4,29.97,WNW,299,0.0,0.0,96,0.00,,,0.00,Wunderground v.1.15,2013-06-26 06:15:00,
2013-06-26 02:20:00,66.4,65.2,29.97,WNW,299,0.0,0.0,96,0.00,,,0.00,Wunderground v.1.15,2013-06-26 06:20:00,
2013-06-26 02:25:00,66.3,65.1,29.96,WNW,299,0.0,0.0,96,0.00,,,0.00,Wunderground v.1.15,2013-06-26 06:25:00,
2013-06-26 02:35:00,66.2,65.0,29.96,WNW,299,0.0,0.0,96,0.00,,,0.00,Wunderground v.1.15,2013-06-26 06:35:00,
2013-06-26 02:45:00,66.2,65.3,29.95,WNW,299,0.0,0.0,97,0.00,,,0.00,Wunderground v.1.15,2013-06-26 06:45:00,
2013-06-26 02:55:00,66.1,65.2,29.95,WNW,299,0.0,0.0,97,0.00,,,0.00,Wunderground v.1.15,2013-06-26 06:55:00,
2013-06-26 03:00:00,65.9,65.0,29.94,WNW,299,0.0,0.0,97,0.00,,,0.00,Wunderground v.1.15,2013-06-26 07:00:00,
2013-06-26 03:05:00,65.8,64.9,29.95,WNW,299,0.0,0.0,97,0.00,,,0.00,Wunderground v.1.15,2013-06-26 07:05:00,
2013-06-26 03:15:00,65.6,64.7,29.94,WNW,299,0.0,0.0,97,0.00,,,0.00,Wunderground v.1.15,2013-06-26 07:15:00,
2013-06-26 03:20:00,65.4,64.5,29.95,WNW,299,0.0,0.0,97,0.00,,,0.00,Wunderground v.1.15,2013-06-26 07:20:00,
2013-06-26 03:25:00,65.4,64.5,29.95,WNW,299,0.0,0.0,97,0.00,,,0.00,Wunderground v.1.15,2013-06-26 07:25:00,
2013-06-26 03:35:00,65.3,64.4,29.94,WNW,299,0.0,0.0,97,0.00,,,0.00,Wunderground v.1.15,2013-06-26 07:35:00,
2013-06-26 03:45:00,65.1,64.2,29.95,WNW,299,0.0,0.0,97,0.00,,,0.00,Wunderground v.1.15,2013-06-26 07:45:00,
2013-06-26 03:50:00,65.0,64.1,29.95,WNW,299,0.0,0.0,97,0.00,,,0.00,Wunderground v.1.15,2013-06-26 07:50:00,
2013-06-26 03:55:00,65.0,64.1,29.95,WNW,299,0.0,0.0,97,0.00,,,0.00,Wunderground v.1.15,2013-06-26 07:55:00,
2013-06-26 04:05:00,65.0,64.4,29.95,WNW,299,0.0,0.0,98,0.00,,,0.00,Wunderground v.1.15,2013-06-26 08:05:00,
2013-06-26 04:15:00,64.9,64.3,29.95,WNW,299,0.0,0.0,98,0.00,,,0.00,Wunderground v.1.15,2013-06-26 08:15:00,
2013-06-26 04:25:00,65.0,64.4,29.95,WNW,299,0.0,0.0,98,0.00,,,0.00,Wunderground v.1.15,2013-06-26 08:25:00,
2013-06-26 04:30:00,65.0,64.4,29.95,WNW,299,0.0,0.0,98,0.00,,,0.00,Wunderground v.1.15,2013-06-26 08:30:00,
2013-06-26 04:40:00,65.0,64.4,29.95,WNW,299,0.0,0.0,98,0.00,,,0.00,Wunderground v.1.15,2013-06-26 08:40:00,
2013-06-26 04:50:00,64.9,64.3,29.95,WNW,299,0.0,0.0,98,0.00,,,0.00,Wunderground v.1.15,2013-06-26 08:50:00,
2013-06-26 04:55:00,64.8,64.2,29.95,WNW,299,0.0,0.0,98,0.00,,,0.00,Wunderground v.1.15,2013-06-26 08:55:00,
2013-06-26 05:00:00,64.7,64.1,29.95,WNW,299,0.0,0.0,98,0.00,,,0.00,Wunderground v.1.15,2013-06-26 09:00:00,
2013-06-26 05:05:00,64.6,64.0,29.96,WNW,299,0.0,0.0,98,0.00,,,0.00,Wunderground v.1.15,2013-06-26 09:05:00,
2013-06-26 05:15:00,64.6,64.0,29.96,WNW,299,0.0,0.0,98,0.00,,,0.00,Wunderground v.1.15,2013-06-26 09:15:00,
2013-06-26 05:20:00,64.7,64.1,29.96,WNW,299,0.0,0.0,98,0.00,,,0.00,Wunderground v.1.15,2013-06-26 09:20:00,
2013-06-26 05:25:00,64.7,64.1,29.97,WNW,299,0.0,0.0,98,0.00,,,0.00,Wunderground v.1.15,2013-06-26 09:25:00,
2013-06-26 05:35:00,64.7,64.1,29.97,WNW,299,0.0,0.0,98,0.00,,,0.00,Wunderground v.1.15,2013-06-26 09:35:00,
2013-06-26 05:40:00,64.6,64.0,29.97,WNW,299,0.0,0.0,98,0.00,,,0.00,Wunderground v.1.15,2013-06-26 09:40:00,
2013-06-26 05:50:00,64.5,63.9,29.97,WNW,299,0.0,0.0,98,0.00,,,0.00,Wunderground v.1.15,2013-06-26 09:50:00,
2013-06-26 06:00:00,64.3,63.7,29.98,WNW,300,0.0,0.0,98,0.00,,,0.00,Wunderground v.1.15,2013-06-26 10:00:00,
2013-06-26 06:05:00,64.2,63.6,29.98,WNW,300,0.0,0.0,98,0.00,,,0.00,Wunderground v.1.15,2013-06-26 10:05:00,
2013-06-26 06:15:00,64.1,63.5,29.98,WNW,300,0.0,0.0,98,0.00,,,0.00,Wunderground v.1.15,2013-06-26 10:15:00,
2013-06-26 06:25:00,64.0,63.4,29.99,WNW,300,0.0,0.0,98,0.00,,,0.00,Wunderground v.1.15,2013-06-26 10:25:00,
2013-06-26 06:30:00,64.0,63.4,29.99,WNW,300,0.0,0.0,98,0.00,,,0.00,Wunderground v.1.15,2013-06-26 10:30:00,
2013-06-26 06:40:00,64.0,63.7,29.99,WNW,300,0.0,0.0,99,0.00,,,0.00,Wunderground v.1.15,2013-06-26 10:40:00,
2013-06-26 06:45:00,64.0,63.7,29.99,WNW,300,0.0,0.0,99,0.00,,,0.00,Wunderground v.1.15,2013-06-26 10:45:00,
2013-06-26 06:50:00,63.9,63.6,29.99,WNW,300,0.0,0.0,99,0.00,,,0.00,Wunderground v.1.15,2013-06-26 10:50:00,
2013-06-26 07:00:00,63.9,63.6,29.99,WNW,300,0.0,0.0,99,0.00,,,0.00,Wunderground v.1.15,2013-06-26 11:00:00,
2013-06-26 07:05:00,63.9,63.6,29.99,WNW,300,0.0,1.0,99,0.00,,,0.00,Wunderground v.1.15,2013-06-26 11:05:00,
2013-06-26 07:15:00,64.0,63.7,30.00,WNW,300,0.0,1.0,99,0.00,,,0.00,Wunderground v.1.15,2013-06-26 11:15:00,
2013-06-26 07:25:00,64.1,63.8,30.00,WNW,300,0.0,1.0,99,0.00,,,0.00,Wunderground v.1.15,2013-06-26 11:25:00,
2013-06-26 07:30:00,64.2,63.9,30.00,WNW,300,0.0,1.0,99,0.00,,,0.00,Wunderground v.1.15,2013-06-26 11:30:00,
2013-06-26 07:40:00,64.5,64.2,29.99,WNW,300,0.0,1.0,99,0.00,,,0.00,Wunderground v.1.15,2013-06-26 11:40:00,
2013-06-26 07:45:00,64.5,64.2,30.00,WNW,300,0.0,1.0,99,0.00,,,0.00,Wunderground v.1.15,2013-06-26 11:45:00,
2013-06-26 07:55:00,64.7,64.4,30.00,WNW,300,0.0,1.0,99,0.00,,,0.00,Wunderground v.1.15,2013-06-26 11:55:00,
2013-06-26 08:05:00,65.0,64.7,30.00,WNW,300,0.0,1.0,99,0.00,,,0.00,Wunderground v.1.15,2013-06-26 12:05:00,
2013-06-26 08:15:00,65.3,65.0,30.00,WNW,300,0.0,1.0,99,0.00,,,0.00,Wunderground v.1.15,2013-06-26 12:15:00,
2013-06-26 08:20:00,65.4,65.1,30.00,WNW,300,0.0,1.0,99,0.00,,,0.00,Wunderground v.1.15,2013-06-26 12:20:00,
2013-06-26 08:30:00,65.7,65.7,30.00,WNW,300,0.0,1.0,100,0.00,,,0.00,Wunderground v.1.15,2013-06-26 12:30:00,
2013-06-26 08:35:00,65.6,65.3,30.00,WNW,300,0.0,1.0,99,0.00,,,0.00,Wunderground v.1.15,2013-06-26 12:35:00,
2013-06-26 08:45:00,65.7,65.4,30.01,WNW,300,0.0,1.0,99,0.00,,,0.00,Wunderground v.1.15,2013-06-26 12:45:00,
2013-06-26 08:50:00,65.8,65.5,30.00,WNW,300,0.0,1.0,99,0.00,,,0.00,Wunderground v.1.15,2013-06-26 12:50:00,
2013-06-26 09:00:00,65.9,65.6,30.00,WNW,300,0.0,1.0,99,0.00,,,0.00,Wunderground v.1.15,2013-06-26 13:00:00,
2013-06-26 09:05:00,66.0,65.7,29.99,WNW,299,0.0,2.0,99,0.00,,,0.00,Wunderground v.1.15,2013-06-26 13:05:00,
2013-06-26 09:15:00,65.8,65.5,29.99,WNW,299,0.0,2.0,99,0.00,,,0.00,Wunderground v.1.15,2013-06-26 13:15:00,
2013-06-26 09:20:00,65.9,65.6,29.99,WNW,299,0.0,2.0,99,0.00,,,0.00,Wunderground v.1.15,2013-06-26 13:20:00,
2013-06-26 09:30:00,66.1,66.1,29.99,WNW,299,0.0,2.0,100,0.00,,,0.00,Wunderground v.1.15,2013-06-26 13:30:00,
2013-06-26 09:35:00,66.3,66.3,29.99,WNW,299,0.0,2.0,100,0.00,,,0.00,Wunderground v.1.15,2013-06-26 13:35:00,
2013-06-26 09:45:00,66.8,66.8,29.99,WNW,299,0.0,2.0,100,0.00,,,0.00,Wunderground v.1.15,2013-06-26 13:45:00,
2013-06-26 09:55:00,67.5,67.5,29.99,WNW,300,0.0,2.0,100,0.00,,,0.00,Wunderground v.1.15,2013-06-26 13:55:00,
2013-06-26 10:05:00,67.7,67.7,29.99,WNW,300,0.0,2.0,100,0.00,,,0.00,Wunderground v.1.15,2013-06-26 14:05:00,
2013-06-26 10:15:00,68.2,68.2,29.98,WNW,300,0.0,1.0,100,0.00,,,0.00,Wunderground v.1.15,2013-06-26 14:15:00,
2013-06-26 10:20:00,68.5,68.5,29.98,WNW,301,0.0,0.0,100,0.00,,,0.00,Wunderground v.1.15,2013-06-26 14:20:00,
2013-06-26 10:30:00,68.8,68.8,29.98,NW,304,0.0,0.0,100,0.00,,,0.00,Wunderground v.1.15,2013-06-26 14:30:00,
2013-06-26 10:40:00,69.0,68.7,29.98,NW,304,0.0,0.0,99,0.00,,,0.00,Wunderground v.1.15,2013-06-26 14:40:00,
2013-06-26 10:50:00,69.8,69.5,29.97,WNW,287,0.0,0.0,99,0.00,,,0.00,Wunderground v.1.15,2013-06-26 14:50:00,
2013-06-26 11:00:00,72.1,70.6,29.98,NW,315,1.0,1.0,95,0.00,,,0.00,Wunderground v.1.15,2013-06-26 15:00:00,
2013-06-26 11:05:00,73.6,71.1,29.97,NNW,340,1.0,4.0,92,0.00,,,0.00,Wunderground v.1.15,2013-06-26 15:05:00,
2013-06-26 11:15:00,75.4,71.6,29.97,NNW,340,0.0,4.0,88,0.00,,,0.00,Wunderground v.1.15,2013-06-26 15:15:00,
2013-06-26 11:25:00,77.2,73.0,29.98,NNW,340,0.0,4.0,87,0.00,,,0.00,Wunderground v.1.15,2013-06-26 15:25:00,
2013-06-26 11:30:00,78.0,72.8,29.98,NNW,340,0.0,4.0,84,0.00,,,0.00,Wunderground v.1.15,2013-06-26 15:30:00,
2013-06-26 11:40:00,78.7,73.5,29.97,NNW,330,1.0,1.0,84,0.00,,,0.00,Wunderground v.1.15,2013-06-26 15:40:00,
2013-06-26 11:50:00,78.7,72.4,29.97,NNW,327,0.0,4.0,81,0.00,,,0.00,Wunderground v.1.15,2013-06-26 15:50:00,
2013-06-26 11:55:00,78.0,72.4,29.97,NNW,335,1.0,4.0,83,0.00,,,0.00,Wunderground v.1.15,2013-06-26 15:55:00,
2013-06-26 12:05:00,79.0,72.3,29.97,NNW,337,1.0,6.0,80,0.00,,,0.00,Wunderground v.1.15,2013-06-26 16:05:00,
2013-06-26 12:15:00,79.8,72.3,29.97,NNW,341,1.0,6.0,78,0.00,,,0.00,Wunderground v.1.15,2013-06-26 16:15:00,
2013-06-26 12:25:00,78.7,70.5,29.97,SW,228,1.0,6.0,76,0.00,,,0.00,Wunderground v.1.15,2013-06-26 16:25:00,
2013-06-26 12:30:00,78.7,71.6,29.97,NNW,340,1.0,6.0,79,0.00,,,0.00,Wunderground v.1.15,2013-06-26 16:30:00,
2013-06-26 12:35:00,78.6,71.5,29.97,NNW,340,0.0,6.0,79,0.00,,,0.00,Wunderground v.1.15,2013-06-26 16:35:00,
2013-06-26 12:45:00,78.9,72.9,29.97,NW,304,0.0,6.0,82,0.00,,,0.00,Wunderground v.1.15,2013-06-26 16:45:00,
2013-06-26 12:55:00,78.7,71.3,29.97,NW,326,1.0,6.0,78,0.00,,,0.00,Wunderground v.1.15,2013-06-26 16:55:00,
2013-06-26 13:05:00,78.9,73.7,29.97,North,360,2.0,4.0,84,0.00,,,0.00,Wunderground v.1.15,2013-06-26 17:05:00,
2013-06-26 13:15:00,80.8,73.3,29.97,NNW,348,4.0,4.0,78,0.00,,,0.00,Wunderground v.1.15,2013-06-26 17:15:00,
2013-06-26 13:20:00,80.1,70.7,29.97,NNW,340,3.0,7.0,73,0.00,,,0.00,Wunderground v.1.15,2013-06-26 17:20:00,
2013-06-26 13:35:00,77.7,71.0,29.96,NNW,344,0.0,7.0,80,0.00,,,0.00,Wunderground v.1.15,2013-06-26 17:35:00,
2013-06-26 13:45:00,79.8,72.7,29.95,NNW,345,1.0,7.0,79,0.00,,,0.00,Wunderground v.1.15,2013-06-26 17:45:00,
2013-06-26 13:50:00,80.3,71.6,29.95,NNW,345,1.0,7.0,75,0.00,,,0.00,Wunderground v.1.15,2013-06-26 17:50:00,
2013-06-26 14:00:00,80.3,72.0,29.94,North,355,1.0,1.0,76,0.00,,,0.00,Wunderground v.1.15,2013-06-26 18:00:00,
2013-06-26 14:05:00,80.1,72.6,29.94,North,350,1.0,7.0,78,0.00,,,0.00,Wunderground v.1.15,2013-06-26 18:05:00,
2013-06-26 14:15:00,81.3,74.5,29.93,NNW,345,0.0,7.0,80,0.00,,,0.00,Wunderground v.1.15,2013-06-26 18:15:00,
2013-06-26 14:20:00,81.8,73.1,29.93,NNW,345,1.0,7.0,75,0.00,,,0.00,Wunderground v.1.15,2013-06-26 18:20:00,
2013-06-26 14:25:00,81.5,71.6,29.93,NNW,346,2.0,7.0,72,0.00,,,0.00,Wunderground v.1.15,2013-06-26 18:25:00,
2013-06-26 14:35:00,80.6,72.7,29.93,NNW,348,1.0,4.0,77,0.00,,,0.00,Wunderground v.1.15,2013-06-26 18:35:00,
2013-06-26 14:40:00,80.2,72.3,29.93,NNW,348,1.0,7.0,77,0.00,,,0.00,Wunderground v.1.15,2013-06-26 18:40:00,
2013-06-26 14:50:00,79.8,72.3,29.93,NNW,347,1.0,1.0,78,0.00,,,0.00,Wunderground v.1.15,2013-06-26 18:50:00,
2013-06-26 15:00:00,79.7,72.6,29.92,NNW,347,0.0,7.0,79,0.00,,,0.00,Wunderground v.1.15,2013-06-26 19:00:00,
2013-06-26 15:05:00,79.4,72.3,29.92,NNW,347,0.0,7.0,79,0.00,,,0.00,Wunderground v.1.15,2013-06-26 19:05:00,
2013-06-26 15:15:00,79.4,72.7,29.92,North,350,1.0,7.0,80,0.00,,,0.00,Wunderground v.1.15,2013-06-26 19:15:00,
2013-06-26 15:25:00,80.1,73.0,29.91,North,355,0.0,7.0,79,0.00,,,0.00,Wunderground v.1.15,2013-06-26 19:25:00,
2013-06-26 15:35:00,81.3,73.8,29.91,North,355,0.0,7.0,78,0.00,,,0.00,Wunderground v.1.15,2013-06-26 19:35:00,
2013-06-26 15:40:00,81.1,73.2,29.91,NNW,345,1.0,1.0,77,0.00,,,0.00,Wunderground v.1.15,2013-06-26 19:40:00,
2013-06-26 15:50:00,80.5,74.1,29.91,NNW,347,1.0,7.0,81,0.00,,,0.00,Wunderground v.1.15,2013-06-26 19:50:00,
2013-06-26 16:00:00,81.0,73.1,29.90,North,355,1.0,7.0,77,0.00,,,0.00,Wunderground v.1.15,2013-06-26 20:00:00,
2013-06-26 16:05:00,80.8,73.3,29.90,North,355,0.0,7.0,78,0.00,,,0.00,Wunderground v.1.15,2013-06-26 20:05:00,
2013-06-26 16:15:00,80.4,72.5,29.89,North,355,0.0,6.0,77,0.00,,,0.00,Wunderground v.1.15,2013-06-26 20:15:00,
2013-06-26 16:25:00,80.4,73.3,29.89,North,355,0.0,6.0,79,0.00,,,0.00,Wunderground v.1.15,2013-06-26 20:25:00,
2013-06-26 16:35:00,79.9,72.0,29.89,North,355,0.0,6.0,77,0.00,,,0.00,Wunderground v.1.15,2013-06-26 20:35:00,
2013-06-26 16:40:00,79.3,71.8,29.89,North,355,0.0,6.0,78,0.00,,,0.00,Wunderground v.1.15,2013-06-26 20:40:00,
2013-06-26 16:45:00,78.4,71.7,29.90,SE,137,0.0,6.0,80,0.00,,,0.00,Wunderground v.1.15,2013-06-26 20:45:00,
2013-06-26 16:50:00,76.2,68.8,29.90,NE,48,1.0,1.0,78,0.00,,,0.01,Wunderground v.1.15,2013-06-26 20:50:00,
2013-06-26 16:55:00,74.2,68.7,29.90,NNE,19,1.0,6.0,83,0.24,,,0.03,Wunderground v.1.15,2013-06-26 20:55:00,
2013-06-26 17:05:00,71.1,68.0,29.89,NNE,19,0.0,6.0,90,0.07,,,0.04,Wunderground v.1.15,2013-06-26 21:05:00,
2013-06-26 17:15:00,71.6,70.4,29.88,NNE,19,0.0,6.0,96,0.00,,,0.04,Wunderground v.1.15,2013-06-26 21:15:00,
2013-06-26 17:20:00,72.7,72.1,29.88,NNE,19,0.0,6.0,98,0.00,,,0.04,Wunderground v.1.15,2013-06-26 21:20:00,
2013-06-26 17:30:00,74.0,73.1,29.88,NNE,19,0.0,6.0,97,0.00,,,0.04,Wunderground v.1.15,2013-06-26 21:30:00,
2013-06-26 17:40:00,73.8,72.0,29.88,NNE,19,0.0,6.0,94,0.00,,,0.04,Wunderground v.1.15,2013-06-26 21:40:00,
2013-06-26 17:50:00,72.9,70.8,29.88,NNE,19,0.0,6.0,93,0.00,,,0.04,Wunderground v.1.15,2013-06-26 21:50:00,
2013-06-26 17:55:00,72.7,70.9,29.88,NNE,19,0.0,6.0,94,0.00,,,0.04,Wunderground v.1.15,2013-06-26 21:55:00,
2013-06-26 18:00:00,72.6,70.8,29.88,NNE,19,0.0,6.0,94,0.00,,,0.04,Wunderground v.1.15,2013-06-26 22:00:00,
2013-06-26 18:05:00,72.4,70.9,29.88,NNE,19,0.0,6.0,95,0.00,,,0.04,Wunderground v.1.15,2013-06-26 22:05:00,
2013-06-26 18:15:00,72.4,70.9,29.88,NNE,19,0.0,0.0,95,0.00,,,0.04,Wunderground v.1.15,2013-06-26 22:15:00,
2013-06-26 18:20:00,72.5,71.3,29.88,NNE,19,0.0,0.0,96,0.00,,,0.04,Wunderground v.1.15,2013-06-26 22:20:00,
2013-06-26 18:30:00,72.7,71.5,29.88,NNE,19,0.0,0.0,96,0.00,,,0.04,Wunderground v.1.15,2013-06-26 22:30:00,
2013-06-26 18:35:00,72.4,71.2,29.88,NNE,19,0.0,0.0,96,0.00,,,0.04,Wunderground v.1.15,2013-06-26 22:35:00,
2013-06-26 18:45:00,71.7,70.2,29.89,NNE,19,0.0,0.0,95,0.15,,,0.06,Wunderground v.1.15,2013-06-26 22:45:00,
2013-06-26 18:50:00,71.3,69.8,29.88,NNE,19,0.0,0.0,95,0.08,,,0.06,Wunderground v.1.15,2013-06-26 22:50:00,
2013-06-26 19:00:00,71.5,70.6,29.88,NNE,19,0.0,0.0,97,0.00,,,0.06,Wunderground v.1.15,2013-06-26 23:00:00,
2013-06-26 19:05:00,71.6,70.7,29.88,NNE,19,0.0,2.0,97,0.00,,,0.06,Wunderground v.1.15,2013-06-26 23:05:00,
2013-06-26 19:15:00,71.7,70.8,29.88,NNE,19,0.0,2.0,97,0.00,,,0.06,Wunderground v.1.15,2013-06-26 23:15:00,
2013-06-26 19:20:00,71.3,70.1,29.88,NNE,19,0.0,2.0,96,0.00,,,0.06,Wunderground v.1.15,2013-06-26 23:20:00,
2013-06-26 19:30:00,70.8,69.6,29.87,NNE,19,0.0,2.0,96,0.00,,,0.06,Wunderground v.1.15,2013-06-26 23:30:00,
2013-06-26 19:35:00,70.5,69.3,29.87,NNE,19,0.0,2.0,96,0.00,,,0.06,Wunderground v.1.15,2013-06-26 23:35:00,
2013-06-26 19:45:00,70.0,68.8,29.87,NNE,19,0.0,2.0,96,0.00,,,0.06,Wunderground v.1.15,2013-06-26 23:45:00,
2013-06-26 19:50:00,69.9,68.7,29.87,NNE,19,0.0,2.0,96,0.00,,,0.06,Wunderground v.1.15,2013-06-26 23:50:00,
2013-06-26 20:00:00,69.7,68.5,29.87,NNE,19,0.0,2.0,96,0.00,,,0.06,Wunderground v.1.15,2013-06-27 00:00:00,
2013-06-26 20:05:00,69.7,68.5,29.87,NNE,19,0.0,2.0,96,0.00,,,0.06,Wunderground v.1.15,2013-06-27 00:05:00,
2013-06-26 20:15:00,69.8,68.6,29.87,NNE,24,0.0,0.0,96,0.00,,,0.06,Wunderground v.1.15,2013-06-27 00:15:00,
2013-06-26 20:25:00,69.7,68.5,29.87,North,355,0.0,0.0,96,0.00,,,0.06,Wunderground v.1.15,2013-06-27 00:25:00,
2013-06-26 20:35:00,69.6,68.1,29.86,North,355,0.0,0.0,95,0.00,,,0.06,Wunderground v.1.15,2013-06-27 00:35:00,
2013-06-26 20:40:00,69.9,68.7,29.87,North,355,0.0,0.0,96,0.00,,,0.06,Wunderground v.1.15,2013-06-27 00:40:00,
2013-06-26 20:50:00,70.3,69.1,29.86,North,355,0.0,0.0,96,0.00,,,0.06,Wunderground v.1.15,2013-06-27 00:50:00,
2013-06-26 20:55:00,70.5,69.3,29.86,North,355,0.0,0.0,96,0.00,,,0.06,Wunderground v.1.15,2013-06-27 00:55:00,
2013-06-26 21:05:00,70.9,69.7,29.86,North,355,0.0,1.0,96,0.00,,,0.06,Wunderground v.1.15,2013-06-27 01:05:00,
2013-06-26 21:15:00,70.9,69.7,29.87,North,355,0.0,1.0,96,0.00,,,0.06,Wunderground v.1.15,2013-06-27 01:15:00,
2013-06-26 21:20:00,70.9,69.7,29.87,North,355,0.0,1.0,96,0.00,,,0.06,Wunderground v.1.15,2013-06-27 01:20:00,
2013-06-26 21:30:00,70.8,69.6,29.87,North,355,0.0,1.0,96,0.00,,,0.06,Wunderground v.1.15,2013-06-27 01:30:00,
2013-06-26 21:40:00,70.6,69.4,29.86,North,355,0.0,1.0,96,0.00,,,0.06,Wunderground v.1.15,2013-06-27 01:40:00,
2013-06-26 21:45:00,70.5,69.3,29.87,North,355,0.0,1.0,96,0.00,,,0.06,Wunderground v.1.15,2013-06-27 01:45:00,
2013-06-26 21:54:00,70.2,69.0,29.88,North,355,0.0,1.0,96,0.00,,,0.06,Wunderground v.1.15,2013-06-27 01:54:00,
2013-06-26 21:59:00,70.1,69.2,29.88,North,355,0.0,1.0,97,0.00,,,0.06,Wunderground v.1.15,2013-06-27 01:59:00,
2013-06-26 22:05:00,70.1,69.2,29.88,North,355,0.0,1.0,97,0.00,,,0.06,Wunderground v.1.15,2013-06-27 02:05:00,
2013-06-26 22:15:00,69.8,68.9,29.88,North,355,0.0,0.0,97,0.00,,,0.06,Wunderground v.1.15,2013-06-27 02:15:00,
2013-06-26 22:25:00,69.6,68.7,29.88,North,355,0.0,0.0,97,0.00,,,0.06,Wunderground v.1.15,2013-06-27 02:25:00,
2013-06-26 22:35:00,69.6,68.7,29.88,North,355,0.0,0.0,97,0.00,,,0.06,Wunderground v.1.15,2013-06-27 02:35:00,
2013-06-26 22:40:00,69.6,68.7,29.88,North,355,0.0,0.0,97,0.00,,,0.06,Wunderground v.1.15,2013-06-27 02:40:00,
2013-06-26 22:50:00,69.5,68.6,29.87,North,355,0.0,0.0,97,0.00,,,0.06,Wunderground v.1.15,2013-06-27 02:50:00,
2013-06-26 22:55:00,69.5,68.3,29.87,North,355,0.0,0.0,96,0.00,,,0.06,Wunderground v.1.15,2013-06-27 02:55:00,
2013-06-26 23:05:00,69.5,68.3,29.87,North,355,0.0,0.0,96,0.00,,,0.06,Wunderground v.1.15,2013-06-27 03:05:00,
2013-06-26 23:15:00,69.7,68.5,29.88,North,355,0.0,0.0,96,0.00,,,0.06,Wunderground v.1.15,2013-06-27 03:15:00,
2013-06-26 23:20:00,69.9,68.4,29.88,North,355,0.0,0.0,95,0.00,,,0.06,Wunderground v.1.15,2013-06-27 03:20:00,
2013-06-26 23:25:00,70.0,68.5,29.88,North,355,0.0,0.0,95,0.00,,,0.06,Wunderground v.1.15,2013-06-27 03:25:00,
2013-06-26 23:35:00,70.2,68.4,29.88,North,355,0.0,0.0,94,0.00,,,0.06,Wunderground v.1.15,2013-06-27 03:35:00,
2013-06-26 23:45:00,70.3,68.5,29.88,North,355,0.0,0.0,94,0.00,,,0.06,Wunderground v.1.15,2013-06-27 03:45:00,
2013-06-26 23:55:00,70.2,68.4,29.88,North,355,0.0,0.0,94,0.00,,,0.06,Wunderground v.1.15,2013-06-27 03:55:00,